Clinton, MO

1:53 AM CST on November 21, 2019 (GMT -0600)
Clinton Memorial

Weather History for KGLY - September, 2019

Change the Weather History Date:

Friday, September 13, 2019

  Actual Average (WUND) Record (WUND)
Temperature  
Mean Temperature 68 °F -  
Max Temperature 77 °F - - (-1)
Min Temperature 59 °F - - (-1)
Cooling Degree Days 3    
Growing Degree Days 18 (Base 50)    
Moisture  
Dew Point 63 °F    
Average Humidity 86    
Maximum Humidity 100    
Minimum Humidity 50    
Precipitation  
Precipitation 0.00 in - - ()
Sea Level Pressure  
Sea Level Pressure 30.20 in    
Wind  
Wind Speed 4 mph (West)    
Max Wind Speed 8 mph    
Max Gust Speed -    
Visibility 6 miles    
Events Rain    
Averages and records for this station are not official NWS values.
T = Trace of Precipitation, MM = Missing Value Source: NWS Daily Summary

Daily Weather History Graph

Daily Weather History Graph

Search for Another Location

Airport or City:

Astronomy

Sep. 13, 2019 Rise Set
Actual Time 6:54 AM CDT 7:26 PM CDT
Civil Twilight 6:27 AM CDT 7:52 PM CDT
Nautical Twilight 5:56 AM CDT 8:24 PM CDT
Astronomical Twilight 5:24 AM CDT 8:56 PM CDT
Moon 7:39 PM CDT (9/13) 6:13 AM CDT (9/13)
Length of Visible Light 13h 24m
Length of Day
12h 31m
Full, 100% of the Moon is Illuminated
Sep 13
Full
Sep 13
Full
Sep 21
Last Quarter
Sep 28
New
Oct 5
First Quarter

Hourly Weather History & Observations

Time (CDT) Temp. Dew Point Humidity Pressure Visibility Wind Dir Wind Speed Gust Speed Precip Events Conditions
12:35 AM 69.8 °F 69.8 °F 100% 30.10 in 10.0 mi SW 5.8 mph - N/A   Mostly Cloudy
12:55 AM 68.0 °F 68.0 °F 100% 30.11 in 10.0 mi SW 8.1 mph - N/A Rain Light Rain
1:15 AM 68.0 °F 68.0 °F 100% 30.11 in 10.0 mi SSW 3.5 mph - N/A   Mostly Cloudy
1:35 AM 68.0 °F 68.0 °F 100% 30.12 in 10.0 mi SW 4.6 mph - N/A   Scattered Clouds
2:15 AM 69.8 °F 69.8 °F 100% 30.13 in 10.0 mi WSW 6.9 mph - N/A   Overcast
3:15 AM 68.0 °F 68.0 °F 100% 30.10 in 9.0 mi Calm Calm - N/A   Partly Cloudy
3:35 AM 68.0 °F 68.0 °F 100% 30.10 in 7.0 mi Calm Calm - N/A   Clear
3:55 AM 68.0 °F 68.0 °F 100% 30.11 in 8.0 mi SW 4.6 mph - N/A   Clear
4:35 AM 68.0 °F 68.0 °F 100% 30.12 in 10.0 mi Calm Calm - N/A   Clear
4:55 AM 68.0 °F 68.0 °F 100% 30.13 in 9.0 mi SW 4.6 mph - N/A   Scattered Clouds
5:15 AM 68.0 °F 68.0 °F 100% 30.14 in 10.0 mi SW 5.8 mph - N/A   Scattered Clouds
5:55 AM 68.0 °F 68.0 °F 100% 30.16 in 8.0 mi SW 4.6 mph - N/A   Partly Cloudy
6:15 AM 68.0 °F 68.0 °F 100% 30.17 in 8.0 mi WNW 4.6 mph - N/A   Clear
6:35 AM 68.0 °F 68.0 °F 100% 30.18 in 10.0 mi West 4.6 mph - N/A   Clear
6:55 AM 66.2 °F 66.2 °F 100% 30.19 in 10.0 mi WNW 8.1 mph - N/A   Clear
7:15 AM 64.4 °F 64.4 °F 100% 30.19 in 10.0 mi NW 5.8 mph - N/A   Clear
7:35 AM 64.4 °F 62.6 °F 94% 30.20 in 10.0 mi Calm Calm - N/A   Clear
7:55 AM 64.4 °F 62.6 °F 94% 30.21 in 10.0 mi Calm Calm - N/A   Clear
8:15 AM 64.4 °F 62.6 °F 94% 30.21 in 10.0 mi Calm Calm - N/A   Clear
8:55 AM 68.0 °F 60.8 °F 78% 30.22 in 10.0 mi Calm Calm - N/A   Clear
9:15 AM 68.0 °F 62.6 °F 83% 30.23 in 10.0 mi WNW 4.6 mph - N/A   Clear
9:35 AM 68.0 °F 59.0 °F 73% 30.24 in 10.0 mi NW 5.8 mph - N/A   Clear
9:55 AM 68.0 °F 57.2 °F 68% 30.24 in 10.0 mi NW 6.9 mph - N/A   Clear
10:15 AM 69.8 °F 59.0 °F 68% 30.25 in 10.0 mi NNW 5.8 mph - N/A   Clear
10:35 AM 71.6 °F 59.0 °F 64% 30.25 in 10.0 mi NW 8.1 mph - N/A   Clear
10:55 AM 71.6 °F 59.0 °F 64% 30.25 in 10.0 mi NW 8.1 mph - N/A   Clear
11:15 AM 71.6 °F 57.2 °F 60% 30.25 in 10.0 mi NNW 8.1 mph - N/A   Clear
12:15 PM 71.6 °F 57.2 °F 60% 30.26 in 10.0 mi NNW 3.5 mph - N/A   Clear
1:55 PM 75.2 °F 57.2 °F 53% 30.24 in 9.0 mi Calm Calm - N/A   Clear
2:15 PM 75.2 °F 59.0 °F 57% 30.24 in 9.0 mi Calm Calm - N/A   Clear
2:35 PM 77.0 °F 57.2 °F 50% 30.23 in 10.0 mi Calm Calm - N/A   Clear
3:15 PM 77.0 °F 62.6 °F 61% 30.23 in 2.0 mi Calm Calm - N/A   Haze
3:35 PM 75.2 °F 59.0 °F 57% 30.23 in 0.8 mi Calm Calm - N/A   Haze
4:15 PM 75.2 °F 59.0 °F 57% 30.22 in 0.8 mi Calm Calm - N/A   Haze
4:55 PM 75.2 °F 60.8 °F 61% 30.22 in 0.5 mi SSW 4.6 mph - N/A   Haze
5:35 PM 73.4 °F 62.6 °F 69% 30.21 in 8.0 mi Calm Calm - N/A   Clear
5:55 PM 73.4 °F 64.4 °F 73% 30.21 in 0.8 mi Calm Calm - N/A   Haze
7:35 PM 69.8 °F 62.6 °F 78% 30.21 in 0.5 mi Calm Calm - N/A   Haze
7:55 PM 66.2 °F 62.6 °F 88% 30.21 in 1.8 mi Calm Calm - N/A   Clear
8:15 PM 64.4 °F 62.6 °F 94% 30.21 in 1.0 mi Calm Calm - N/A   Clear
8:35 PM 64.4 °F 62.6 °F 94% 30.21 in 1.2 mi Calm Calm - N/A   Clear
8:55 PM 62.6 °F 60.8 °F 94% 30.21 in 1.2 mi Calm Calm - N/A   Clear
9:15 PM 62.6 °F 62.6 °F 100% 30.22 in 0.8 mi Calm Calm - N/A   Mist
9:35 PM 60.8 °F 59.0 °F 94% 30.21 in 1.0 mi Calm Calm - N/A   Clear
9:55 PM 60.8 °F 60.8 °F 100% 30.22 in 1.0 mi Calm Calm - N/A   Clear
10:15 PM 59.0 °F 59.0 °F 100% 30.22 in 0.8 mi Calm Calm - N/A   Mist
10:35 PM 59.0 °F 59.0 °F 100% 30.22 in 0.8 mi Calm Calm - N/A   Mist
10:55 PM 59.0 °F 59.0 °F 100% 30.22 in 1.0 mi Calm Calm - N/A   Clear
11:15 PM 59.0 °F 59.0 °F 100% 30.22 in 1.0 mi Calm Calm - N/A   Clear
11:55 PM 59.0 °F 59.0 °F 100% 30.21 in 1.0 mi Calm Calm - N/A   Clear